星链-31224 (STARLINK-31224 )

导读

STARLINK-31224是美国太空探索技术公司 SpaceX星链互联网星座的成员卫星,于2024年2月25日在美国发射入轨,属于星链星座扩容任务的卫星之一。星链计划旨在为全球提供高速低延迟互联网覆盖,该卫星延续星链设计,承担近地轨道卫星组网,服务全球偏远与欠发达地区网络接入。

Basic Information
目录编号:
59029
目录名称:
STARLINK-31224
国际标识:
2024-038G
轨道中心:
EARTH
卫星名称:
星链-31224
卫星全名:
星链-31224 (STARLINK-31224 )
卫星状态:
在轨 (已飞行922 天)
发射日期:
2024-02-25 UTC
国别 :
美国 (US)
星等 :
--
Orbit Information
数据来源 国际轨道数据 AOE轨道数据
星历时间 2026-09-04T08:27:08+0800
9小时前
查看轨道信息
2026-09-01T11:00:00+0800
3天前
查看轨道信息
半长轴 6861.193km 6861.182km
偏心率 0.0001506 0.0002084
轨道倾角 43.001° 43.000°
近地点辐角 273.994° 255.801°
升交点赤经 99.703° 116.055°
平近点角 86.074° 11.561°
近地点 482.022km 481.615km
远地点 484.09km 484.475km
周期 94.267分钟 94.267分钟
每日圈数 15.275777 15.275817
Detailed Information
固有亮度:
5
最大亮度:
0.3
卫星平台:
Starlink v2.0 mini
覆盖范围:
全球
运营商:
太空探索技术公司
运营商所在国:
美国
制造商(研发单位):
太空探索技术公司
制造商所在国:
美国
使用方式:
暂无
Satellite Introduction
星链(Starlink)计划是由太空探索技术公司(SpaceX)提出的一个巨型低轨卫星互联网星座项目,计划在2019年至2024年间在太空搭建由约1.2万颗卫星组成的“星链”网络,其中1584颗将部署在地球上空550千米处的近地轨道,并从2020年开始工作。该卫星仍在工作。
2D Orbit Map
3D Orbit Map
Orbit Altitude Analysis Chart
Orbit Inclination Analysis Chart
Orbit Comprehensive Analysis Chart
View Comprehensive Chart
Conjunction Data List
Event ID Objects TCA Miss Dist (km) Collision Risk Probability Collision Risk Index (CRI) Action
CDM_260906-090205-902906-219621
2026-09-06T
09:02:14+0000
0.439 km
远距离
2.179925E-4 高风险 0.82
CDM_260905-155501-679105-902921
2026-09-05T
15:55:25+0000
1.538 km
极远距离
5.495442E-6 低风险 0.5
CDM_260906-103605-902906-219621
2026-09-06T
10:36:23+0000
1.986 km
极远距离
2.279302E-6 低风险 0.42
CDM_260906-072805-902906-219621
2026-09-06T
07:28:04+0000
2.814 km
极远距离
1.162608E-6 低风险 0.36
CDM_260905-180405-288205-902921
2026-09-05T
18:04:26+0000
2.992 km
极远距离
1.15258E-6 低风险 0.36